DW9695 Weather Reports


time (UTC)temp
C
wind
direction
speed
KPH
gust
KPH
rain 1hr
cm
rain 24hr
cm
rain mn
cm
humidity
%
barometer
mb
20260507150046 14 217 6.4 12.9 0.00 0.00 0.00 64 1014.2
20260507144548 13 224 6.4 11.3 0.00 0.00 0.00 64 1014.2
20260507143041 13 201 0.0 4.8 0.00 0.00 0.00 68 1014.0
20260507141537 12 210 0.0 3.2 0.00 0.00 0.00 74 1014.0
20260507140050 11 271 0.0 0.0 0.00 0.00 0.00 78 1013.9
20260507134536 8 310 0.0 0.0 0.00 0.00 0.00 85 1013.9
20260507133035 7 32 0.0 1.6 0.00 0.00 0.00 85 1014.0
20260507131536 7 23 0.0 4.8 0.00 0.00 0.00 85 1014.0
20260507130131 6 20 0.0 1.6 0.00 0.00 0.00 85 1013.6
20260507124529 6 25 0.0 0.0 0.00 0.00 0.00 88 1013.3
20260507123032 6 56 0.0 4.8 0.00 0.00 0.00 81 1013.3
20260507121536 7 281 1.6 4.8 0.00 0.00 0.00 86 1013.0
20260507120023 7 341 0.0 3.2 0.00 0.00 0.00 79 1013.1
20260507114522 7 238 0.0 1.6 0.00 0.00 0.00 84 1013.3
20260507113031 8 139 0.0 3.2 0.00 0.00 0.00 84 1013.2
20260507111523 7 91 1.6 4.8 0.00 0.00 0.00 85 1013.2
20260507110017 8 305 0.0 0.0 0.00 0.00 0.00 82 1013.0
20260507104516 8 239 3.2 6.4 0.00 0.00 0.00 83 1012.8
20260507103010 10 64 1.6 9.7 0.00 0.00 0.00 80 1012.7
20260507101510 10 264 3.2 11.3 0.00 0.00 0.00 79 1012.6
20260507100012 10 249 8.0 14.5 0.00 0.00 0.00 77 1012.5
20260507094507 10 262 9.7 12.9 0.00 0.00 0.00 79 1012.5
20260507093006 9 256 3.2 9.7 0.00 0.00 0.00 81 1012.5
20260507091609 10 162 0.0 8.0 0.00 0.00 0.00 77 1012.7
20260507090057 10 274 3.2 8.0 0.00 0.00 0.00 76 1012.2
20260507084558 11 269 4.8 9.7 0.00 0.00 0.00 75 1012.4
20260507083059 12 250 4.8 16.1 0.00 0.00 0.00 71 1012.2
20260507081552 12 257 14.5 20.9 0.00 0.00 0.00 69 1011.7
20260507080114 12 275 14.5 20.9 0.00 0.00 0.00 67 1011.7
20260507074552 12 240 16.1 22.5 0.00 0.00 0.00 68 1011.7
20260507073050 12 250 11.3 17.7 0.00 0.00 0.00 72 1011.9
20260507071557 11 246 8.0 12.9 0.00 0.00 0.00 76 1011.9
20260507070038 11 250 3.2 8.0 0.00 0.00 0.00 74 1011.9
20260507064537 12 285 0.0 8.0 0.00 0.00 0.00 71 1011.9
20260507063039 13 255 1.6 8.0 0.00 0.00 0.00 68 1011.8
20260507061536 13 297 3.2 6.4 0.00 0.00 0.00 65 1011.7
20260507060033 14 311 4.8 12.9 0.00 0.00 0.00 61 1011.2
20260507054533 15 298 4.8 11.3 0.00 0.00 0.00 60 1011.2
20260507053037 15 257 4.8 9.7 0.00 0.00 0.00 58 1011.2
20260507051534 16 292 4.8 9.7 0.00 0.00 0.00 57 1011.0
20260507050031 16 307 6.4 9.7 0.00 0.00 0.00 54 1010.9
20260507044533 16 297 6.4 14.5 0.00 0.00 0.00 54 1010.9
20260507043036 16 297 4.8 12.9 0.00 0.00 0.00 53 1010.7
20260507041529 17 297 6.4 14.5 0.00 0.00 0.00 50 1010.7
20260507040028 17 290 9.7 17.7 0.00 0.00 0.00 48 1010.6
20260507034528 17 314 9.7 17.7 0.00 0.00 0.00 46 1010.3
20260507033028 18 295 4.8 9.7 0.00 0.00 0.00 43 1010.3
20260507031526 18 259 6.4 11.3 0.00 0.00 0.00 40 1010.2
20260507030030 19 299 6.4 14.5 0.00 0.00 0.00 37 1010.1
20260507024525 20 307 6.4 12.9 0.00 0.00 0.00 36 1009.7
20260507023028 21 311 6.4 12.9 0.00 0.00 0.00 33 1009.7
20260507021524 21 299 4.8 9.7 0.00 0.00 0.00 31 1009.4
20260507020025 22 300 6.4 11.3 0.00 0.00 0.00 29 1009.4
20260507014522 22 290 6.4 12.9 0.00 0.00 0.00 32 1009.4
20260507013032 23 305 6.4 14.5 0.00 0.00 0.00 31 1009.3
20260507011534 23 307 8.0 12.9 0.00 0.00 0.00 31 1009.1
20260507010019 23 290 6.4 12.9 0.00 0.00 0.00 33 1009.2
20260507004519 23 300 8.0 19.3 0.00 0.00 0.00 35 1009.2
20260507003019 24 325 8.0 16.1 0.00 0.00 0.00 33 1009.2
20260507001516 25 285 8.0 17.7 0.00 0.00 0.00 32 1009.1
20260507000017 26 266 6.4 12.9 0.00 0.00 0.00 32 1009.2
20260506234515 27 256 14.5 25.7 0.00 0.00 0.00 39 1009.1
20260506233015 28 212 12.9 25.7 0.00 0.00 0.00 38 1009.0
20260506231511 27 209 16.1 24.1 0.00 0.00 0.00 38 1009.0
20260506230009 26 221 12.9 20.9 0.00 0.00 0.00 42 1009.1
20260506224514 26 205 8.0 24.1 0.00 0.00 0.00 41 1009.3
20260506223004 27 205 9.7 20.9 0.00 0.00 0.00 39 1009.6
20260506221504 27 203 8.0 19.3 0.00 0.00 0.00 39 1009.8
20260506220003 26 237 9.7 22.5 0.00 0.00 0.00 42 1010.1
20260506214502 26 253 12.9 17.7 0.00 0.00 0.00 44 1010.2
20260506213001 27 238 3.2 17.7 0.00 0.00 0.00 40 1010.3
20260506211559 27 252 11.3 20.9 0.00 0.00 0.00 42 1010.4
20260506210120 26 242 14.5 20.9 0.00 0.00 0.00 42 1010.6
20260506204557 26 207 4.8 14.5 0.00 0.00 0.00 46 1010.7
20260506203142 26 233 9.7 16.1 0.00 0.00 0.00 42 1010.9
20260506201554 26 212 6.4 19.3 0.00 0.00 0.00 42 1011.0
20260506200053 26 233 9.7 19.3 0.00 0.00 0.00 40 1011.1
20260506194551 25 197 6.4 17.7 0.00 0.00 0.00 44 1011.3
20260506193050 25 259 11.3 16.1 0.00 0.00 0.00 43 1011.4
20260506191552 25 222 9.7 22.5 0.00 0.00 0.00 45 1011.7
20260506190050 25 283 9.7 19.3 0.00 0.00 0.00 47 1011.7
20260506184554 25 252 3.2 14.5 0.00 0.00 0.00 49 1011.7
20260506183043 24 248 4.8 14.5 0.00 0.00 0.00 48 1011.5
20260506181540 24 232 6.4 14.5 0.00 0.00 0.00 47 1011.7
20260506180038 23 215 9.7 17.7 0.00 0.00 0.00 46 1011.8
20260506174535 22 221 8.0 19.3 0.00 0.00 0.00 53 1011.9
20260506173044 22 211 6.4 17.7 0.00 0.00 0.00 53 1011.8
20260506171535 22 218 6.4 14.5 0.00 0.00 0.00 51 1011.9
20260506170029 21 220 6.4 16.1 0.00 0.00 0.00 55 1012.2
20260506164625 21 254 9.7 19.3 0.00 0.00 0.00 57 1012.2
20260506163040 20 225 9.7 17.7 0.00 0.00 0.00 57 1012.2
20260506161525 20 169 6.4 12.9 0.00 0.00 0.00 58 1012.2
20260506160020 20 229 6.4 16.1 0.00 0.00 0.00 60 1012.2
20260506154528 18 202 6.4 16.1 0.00 0.00 0.00 63 1012.2
20260506153011 18 169 3.2 12.9 0.00 0.00 0.00 68 1012.1